Location: Nairn
(57.5833°N, 3.8667°W)
Time: 01:16:29
(UTC+00:00)

Vanguard 1 Rocket - Pass Details

Date: 01 December 2020
Orbit: 655 x 4221 km, 34.3° (Epoch: 20 January)

Event Time Altitude Azimuth Distance (km) Brightness Sun altitude
Exits shadow 23:52:39 13° 107° (ESE) 6,452 11.5 -54.3°
Drops below altitude 10° 23:54:46 10° 102° (ESE) 6,597 11.6 -54.4°
Sets 00:00:41 0° 91° (E) 7,145 12.0 -54.4°
